Flag for U.S.A. Weather past 2 weeks in Glendale, California, U.S.A.

Now
72 °F

Clear.


Feels Like: 77 °F
Forecast: 65 / 91 °F
Wind: 3 mph from Northwest

Location: Burbank-Glendale-Pasadena Airport

Current Time: Jul 23, 2014 at 1:53:49 AM

Latest Report: Jul 23, 2014 at 12:53 AM


Visibility: 10 mi

Pressure: 29.96 "Hg

Humidity: 48%

Dew point: 51 °F

Location of GlendaleLocation

Historic Weather in Glendale — Graph

°F

Glendale temperature yesterday

Maximum temperature yesterday: 86 °F (at 4:53 PM)
Minimum temperature yesterday: 65 °F (at 4:53 AM)
Average temperature yesterday: 74 °F

Past Weeks' High & Low Weather Summary

 TemperatureHumidityPressure
High88 °F (Jul 8, 4:53 PM)87% (Jul 10, 3:53 AM)30.03 "Hg (Jul 10, 3:53 AM)
Low62 °F (Jul 18, 4:53 AM)26% (Jul 22, 7:53 PM)29.80 "Hg (Jul 13, 4:53 PM)
Average72 °F64%29.93 "Hg
* Reported Jul 7 10:53 PM — Jul 22 10:53 PM, Glendale, Weather by CustomWeather, © 2014

Note: Actual official high and low records may vary slightly from our data, if they occured in-between our weather recording intervals... More about our weather records

Advertising

Glendale weather history for previous 24 hours

 ConditionsComfort  
Time TempWeatherWind HumidityBarometerVisibility
10:53 PM
Jul 22
75 °FClear.No wind42%29.97 "Hg10 mi
9:53 PM77 °FClear.5 mph40%29.97 "Hg10 mi
8:53 PM80 °FSunny.7 mph42%29.96 "Hg10 mi
7:53 PM85 °FSunny.6 mph26%29.95 "Hg10 mi
6:53 PM86 °FSunny.5 mph29%29.94 "Hg10 mi
5:53 PM86 °FSunny.8 mph28%29.94 "Hg10 mi
4:53 PM86 °FSunny.10 mph31%29.96 "Hg10 mi
9:53 AM76 °FSunny.No wind54%30.02 "Hg10 mi
8:53 AM71 °FSunny.No wind66%30.02 "Hg10 mi
7:53 AM68 °FSunny.No wind73%30.02 "Hg10 mi
6:53 AM65 °FClear.No wind81%30.01 "Hg10 mi
5:53 AM65 °FClear.No wind76%29.99 "Hg10 mi
4:53 AM65 °FClear.No wind81%29.99 "Hg10 mi
3:53 AM66 °FClear.3 mph78%29.99 "Hg10 mi
2:53 AM66 °FClear.3 mph81%29.98 "Hg10 mi
1:53 AM67 °FClear.No wind76%29.98 "Hg10 mi
Weather by CustomWeather, © 2014

See weather overviewHow to use our weather pages